Regional Weather Roundup
Issued by NWS New Orleans/Baton Rouge, LA

Home | Current Version | Previous Version | Graphics & Text | Print | Product List | Glossary On
Versions: 1 2 3 4 5 6 7 8 9 10 11 12 13 14 15 16 17 18 19 20 21 22 23 24 25 26 27 28 29 30 31 32 33 34 35 36 37 38 39 40 41 42 43 44 45 46 47 48 49 50
527
ASUS44 KLIX 261201
RWRLIX
NEW ORLEANS REGIONAL WEATHER ROUNDUP
NATIONAL WEATHER SERVICE NEW ORLEANS LA
600 AM CST MON JAN 26 2015

NOTE: "FAIR" INDICATES FEW OR NO CLOUDS BELOW 12,000 FEET WITH NO
      SIGNIFICANT WEATHER AND/OR OBSTRUCTIONS TO VISIBILITY.
      SKY/WX - SKY CONDITION AND SIGNIFICANT WEATHER.
      TMP - AIR TEMPERATURE.     DP    - DEWPOINT TEMPERATURE.
      RH  - RELATIVE HUMIDITY.   PRES  - PRESSURE.
      HI  - HEAT INDEX.          WCI   - WIND CHILL INDEX.

*  THESE STATIONS ARE NOT NWS OR FAA STATIONS AND ARE NOT UNDER
   NWS QUALITY CONTROL.

LAZ038-040-048-061>063-065>067-069-261300-
SOUTHEAST LOUISIANA

CITY           SKY/WX    TMP DP  RH WIND       PRES   REMARKS
N.O. AUDUBON     N/A     50  38  62 MISG        N/A
6HR MIN TEMP:  49; 6HR MAX TEMP:  56;

N.O. INTL ARPT CLEAR     50  34  54 N14       30.07R
6HR MIN TEMP:  47; 6HR MAX TEMP:  51;

N.O. LAKEFRONT CLEAR     52  37  56 NW18      30.07R
6HR MIN TEMP:  52; 6HR MAX TEMP:  56;

N.O. DOWNTOWN*   N/A     52  32  46 N3        30.07R
6HR MIN TEMP:  52; 6HR MAX TEMP:  55;

SLIDELL        CLEAR     45  34  65 N6        30.05R
6HR MIN TEMP:  43; 6HR MAX TEMP:  53;

BATON ROUGE    CLEAR     47  32  56 NW7       30.09R
6HR MIN TEMP:  47; 6HR MAX TEMP:  55;

BOOTHVILLE     CLEAR     48  39  71 NW7       30.06R
6HR MIN TEMP:  48; 6HR MAX TEMP:  54;

BELLE CHASSE   CLEAR     50  33  52 NW6       30.06R
6HR MIN TEMP:  47; 6HR MAX TEMP:  53;

BOGALUSA*        N/A     44  34  67 N5        30.07R
6HR MIN TEMP:  41; 6HR MAX TEMP:  49;

GALLIANO*      NOT AVBL
NEW ROADS*     NOT AVBL
GONZALES*      NOT AVBL
HAMMOND*       NOT AVBL
HOUMA*         CLEAR     46  36  66 NW9       30.08R
PORT FOURCHON* SUNNY     50  39  66 NW7       30.12R

$$

MSZ070-080>082-261300-
SOUTHERN MISSISSIPPI

CITY           SKY/WX    TMP DP  RH WIND       PRES   REMARKS
MCCOMB         CLEAR     42  32  67 NW8       30.06R
6HR MIN TEMP:  42; 6HR MAX TEMP:  52;

GULFPORT       CLEAR     43  35  73 NW5       30.03R
6HR MIN TEMP:  41; 6HR MAX TEMP:  53;

BILOXI         CLEAR     44  36  73 VRB1      30.03R
6HR MIN TEMP:  44; 6HR MAX TEMP:  52;

PASCAGOULA     CLEAR     46  34  62 NW7       30.03R
6HR MIN TEMP:  42; 6HR MAX TEMP:  51;


$$

COASTAL OBSERVATIONS
LAKE AND NEARSHORE STATIONS

STATION/POSITION TIME  TEMP    WIND        PRES    WAVE
                       AIR SEA DIR/SP/G            HT/PER
                 (UTC) (F)     (DEG/KT/KT) (MB)    (FT/S)
PASCAGOULA       1123   47     310/  8/ 13 1015.6
WAVELAND YACHT   1123   47     320/  7/ 11 1015.9
GRAND ISLE       1123   54 57  320/ 12/ 14 1018.3
SOUTHWEST PASS   1123   55 46  330/ 19/ 24 1018.1
NEW CANAL        1123   51 51  350/  3/ 11 1017.8
SHELL BEACH      1123   52 53  320/ 17/ 21 1017.4

OFFSHORE STATIONS

STATION/POSITION TIME  TEMP    WIND        PRES    WAVE
                       AIR SEA DIR/SP/G            HT/PER
                 (UTC) (F)     (DEG/KT/KT) (MB)    (FT/S)
64 S DAUPHIN ISL 1121   57 70  320/ 23/ 29 1016.5    7/ 8

$$




USA.gov is the U.S. government's official web portal to all federal, state and local government web resources and services.